Amateur Radio Satellites - All Passes

Search period start: 21 May 2013 07:43
Search period end: 22 May 2013 07:43
Location: Clatteringshaws Loch, 55.0508°N, 4.2860°W

Satellite Date Start Highest point End Downlink Frequencies (MHz)
Time Altitude Azimuth
Hamsat 21 May 08:02:45 08:06:51 39° 97° (E) 08:10:57 145.90 MHz
AO-7 21 May 08:13:40 08:21:36 50° 306° (NW) 08:29:32 29.400 - 29.500 MHz
SO-67 21 May 08:24:06 08:27:01 23° 93° (E) 08:29:54 435.3500 MHz FM
ISS 21 May 08:33:11 08:36:19 38° 194° (SSW) 08:39:29 145.800 FM
PCSat 21 May 08:34:47 08:39:46 39° 118° (ESE) 08:44:47 145.825 MHz
KITSAT 1 21 May 08:35:39 08:43:46 73° 233° (SW) 08:51:50 435.175 FM
Saudisat 1A 21 May 08:36:21 08:40:57 66° 322° (NW) 08:45:34 436.775 MHz
MaSat-1 21 May 08:38:18 08:40:56 14° 6° (N) 08:43:16 437.345 MHz
JAS-1B 21 May 08:44:09 08:50:16 41° 95° (E) 08:55:42 435.800 - 435.900 CW/SSB
Sapphire 21 May 09:07:12 09:12:31 59° 124° (SE) 09:17:52 437.095 MHz 1200 baud AX-25 AFSK
Hamsat 21 May 09:39:00 09:42:54 33° 296° (WNW) 09:46:49 145.90 MHz
SO-50 21 May 09:41:33 09:45:28 25° 119° (ESE) 09:49:19 436.795 FM
Oscar 11 21 May 09:56:50 09:59:07 14° 86° (E) 10:01:23 145.825 FM, Beacon 2401.500 USB
SO-67 21 May 09:57:15 10:00:39 40° 292° (WNW) 10:04:01 435.3500 MHz FM
JAS-2 21 May 10:05:31 10:11:41 29° 86° (E) 10:17:16 435.800 - 435.900 CW/SSB, 435.910 FM
AO-7 21 May 10:06:53 10:12:40 22° 331° (NNW) 10:18:28 29.400 - 29.500 MHz
ISS 21 May 10:10:21 10:12:26 16° 213° (SSW) 10:14:32 145.800 FM
Saudisat 1A 21 May 10:17:21 10:21:23 29° 345° (NNW) 10:25:26 436.775 MHz
PCSat 21 May 10:17:43 10:23:05 58° 320° (NW) 10:28:29 145.825 MHz
MaSat-1 21 May 10:20:51 10:24:37 27° 33° (NNE) 10:27:39 437.345 MHz
HO-68 21 May 10:26:20 10:33:07 43° 98° (E) 10:39:53 435.675 MHz FM
OPAL 21 May 10:30:11 10:32:47 14° 87° (E) 10:35:23 ?
KITSAT 1 21 May 10:32:00 10:37:55 23° 256° (WSW) 10:43:50 435.175 FM
JAS-1B 21 May 10:34:53 10:41:09 46° 301° (WNW) 10:46:41 435.800 - 435.900 CW/SSB
Sapphire 21 May 10:51:03 10:56:13 43° 327° (NNW) 11:01:25 437.095 MHz 1200 baud AX-25 AFSK
SO-50 21 May 11:20:57 11:25:44 78° 319° (NW) 11:30:26 436.795 FM
Oscar 19 21 May 11:31:15 11:32:01 10° 39° (NE) 11:32:47 437.125 CW, 437.150 USB
Oscar 11 21 May 11:31:39 11:36:03 87° 104° (ESE) 11:40:26 145.825 FM, Beacon 2401.500 USB
JAS-2 21 May 11:50:11 11:57:35 78° 290° (WNW) 12:04:05 435.800 - 435.900 CW/SSB, 435.910 FM
Saudisat 1A 21 May 11:58:22 12:02:18 26° 9° (N) 12:06:12 436.775 MHz
AO-7 21 May 11:58:36 12:02:33 14° 359° (N) 12:06:31 29.400 - 29.500 MHz
PCSat 21 May 12:03:00 12:07:35 27° 344° (NNW) 12:12:10 145.825 MHz
MaSat-1 21 May 12:03:09 12:06:59 48° 242° (WSW) 12:10:00 437.345 MHz
Oscar 16 21 May 12:06:48 12:10:20 19° 50° (NE) 12:13:52 437.025 USB, Beacon 2401.1428
OPAL 21 May 12:07:32 12:12:38 74° 107° (ESE) 12:17:37 ?
AO-27 21 May 12:11:56 12:15:08 17° 48° (NE) 12:18:20 436.795 MHz FM
HO-68 21 May 12:14:07 12:21:05 56° 300° (WNW) 12:28:02 435.675 MHz FM
ITAMSAT 1 21 May 12:18:46 12:22:10 18° 49° (NE) 12:25:35 435.822 SSB
JAS-1B 21 May 12:26:38 12:30:08 15° 327° (NNW) 12:33:24 435.800 - 435.900 CW/SSB
Sapphire 21 May 12:36:35 12:40:59 24° 351° (N) 12:45:22 437.095 MHz 1200 baud AX-25 AFSK
UOSAT-12 21 May 12:53:42 12:57:50 36° 124° (SE) 13:02:01 437.025 FM, 437.400 FM
Uribyol 2 21 May 12:58:42 13:03:14 32° 58° (ENE) 13:07:48 436.500 FM
SO-50 21 May 13:02:46 13:06:59 31° 342° (NNW) 13:11:09 436.795 FM
Oscar 19 21 May 13:05:19 13:10:04 38° 61° (ENE) 13:14:51 437.125 CW, 437.150 USB
Oscar 11 21 May 13:08:50 13:11:45 18° 306° (NW) 13:14:40 145.825 FM, Beacon 2401.500 USB
Uosat F 21 May 13:18:08 13:19:52 12° 42° (NE) 13:21:36 435.120 FM
AO-Echo 21 May 13:24:43 13:28:05 19° 54° (NE) 13:31:26 ?
JAS-2 21 May 13:35:47 13:41:34 26° 314° (NW) 13:46:54 435.800 - 435.900 CW/SSB, 435.910 FM
Saudisat 1A 21 May 13:38:23 13:42:54 51° 33° (NNE) 13:47:21 436.775 MHz
Oscar 16 21 May 13:43:47 13:48:59 77° 71° (ENE) 13:54:13 437.025 USB, Beacon 2401.1428
TMSAT-1 21 May 13:46:26 13:48:33 13° 42° (NE) 13:50:41 436.925 FM
AO-7 21 May 13:46:51 13:52:22 20° 26° (NNE) 13:57:54 29.400 - 29.500 MHz
OPAL 21 May 13:47:02 13:51:07 25° 308° (NW) 13:55:09 ?
PCSat 21 May 13:48:15 13:52:40 24° 10° (N) 13:57:06 145.825 MHz
AO-27 21 May 13:48:41 13:53:49 67° 69° (ENE) 13:59:00 436.795 MHz FM
ITAMSAT 1 21 May 13:55:46 14:00:55 73° 70° (ENE) 14:06:08 435.822 SSB
HO-68 21 May 14:02:35 14:07:28 20° 323° (NW) 14:12:22 435.675 MHz FM
Gurwin Techsat 1B 21 May 14:04:56 14:08:45 21° 51° (NE) 14:12:35 435.225 FM
Sapphire 21 May 14:21:26 14:26:04 27° 17° (NNE) 14:30:41 437.095 MHz 1200 baud AX-25 AFSK
UOSAT-12 21 May 14:33:25 14:37:54 56° 325° (NW) 14:42:26 437.025 FM, 437.400 FM
Uribyol 2 21 May 14:37:26 14:42:32 56° 259° (W) 14:47:41 436.500 FM
Oscar 19 21 May 14:44:24 14:49:24 46° 262° (W) 14:54:26 437.125 CW, 437.150 USB
SO-50 21 May 14:44:51 14:48:48 26° 6° (N) 14:52:41 436.795 FM
Uosat F 21 May 14:52:50 14:57:35 45° 64° (ENE) 15:02:21 435.120 FM
AO-Echo 21 May 15:01:31 15:06:22 88° 254° (WSW) 15:11:09 ?
Saudisat 1A 21 May 15:18:16 15:22:36 42° 234° (SW) 15:26:51 436.775 MHz
TMSAT-1 21 May 15:22:18 15:27:20 46° 64° (ENE) 15:32:23 436.925 FM
JAS-2 21 May 15:22:27 15:24:09 11° 339° (NNW) 15:25:49 435.800 - 435.900 CW/SSB, 435.910 FM
Oscar 16 21 May 15:25:00 15:28:57 22° 271° (W) 15:32:56 437.025 USB, Beacon 2401.1428
AO-27 21 May 15:29:38 15:33:50 25° 269° (W) 15:38:05 436.795 MHz FM
PCSat 21 May 15:32:09 15:37:24 45° 35° (NE) 15:42:36 145.825 MHz
AO-7 21 May 15:35:34 15:43:17 45° 51° (NE) 15:51:03 29.400 - 29.500 MHz
ITAMSAT 1 21 May 15:36:59 15:41:00 23° 270° (W) 15:45:04 435.822 SSB
Gurwin Techsat 1B 21 May 15:42:46 15:48:05 84° 72° (ENE) 15:53:26 435.225 FM
HO-68 21 May 15:52:31 15:52:36 10° 349° (NNW) 15:52:41 435.675 MHz FM
JAS-1B 21 May 16:03:49 16:05:09 11° 23° (NNE) 16:06:26 435.800 - 435.900 CW/SSB
Sapphire 21 May 16:05:06 16:10:31 61° 42° (NE) 16:15:54 437.095 MHz 1200 baud AX-25 AFSK
UOSAT-12 21 May 16:15:00 16:18:55 27° 349° (NNW) 16:22:51 437.025 FM, 437.400 FM
Uribyol 2 21 May 16:22:15 16:23:15 11° 280° (W) 16:24:14 436.500 FM
SO-50 21 May 16:25:55 16:30:25 46° 30° (NNE) 16:34:48 436.795 FM
Uosat F 21 May 16:31:58 16:36:32 35° 264° (W) 16:41:09 435.120 FM
AO-Echo 21 May 16:43:02 16:45:54 16° 274° (W) 16:48:46 ?
RS-15 21 May 16:47:16 16:57:47 39° 110° (ESE) 17:07:54 29.354 - 29.394 USB, Beacon 29.352 USB
TMSAT-1 21 May 17:02:31 17:07:25 37° 264° (W) 17:12:21 436.925 FM
PCSat 21 May 17:15:42 17:21:02 55° 237° (WSW) 17:26:19 145.825 MHz
Gurwin Techsat 1B 21 May 17:24:55 17:28:46 20° 273° (W) 17:32:38 435.225 FM
AO-7 21 May 17:27:38 17:35:52 65° 254° (WSW) 17:44:12 29.400 - 29.500 MHz
Hamsat 21 May 17:30:36 17:32:35 13° 51° (NE) 17:34:36 145.90 MHz
HO-68 21 May 17:35:44 17:37:16 11° 15° (NNE) 17:38:48 435.675 MHz FM
JAS-1B 21 May 17:46:50 17:53:26 26° 48° (NE) 17:59:16 435.800 - 435.900 CW/SSB
Sapphire 21 May 17:48:50 17:53:47 36° 243° (WSW) 17:58:41 437.095 MHz 1200 baud AX-25 AFSK
UOSAT-12 21 May 17:56:20 18:00:18 28° 13° (NNE) 18:04:16 437.025 FM, 437.400 FM
SO-50 21 May 18:06:42 18:11:08 48° 232° (SW) 18:15:28 436.795 FM
JAS-2 21 May 18:44:10 18:47:54 14° 30° (NNE) 18:51:35 435.800 - 435.900 CW/SSB, 435.910 FM
RS-15 21 May 18:57:14 19:09:12 89° 316° (NW) 19:20:37 29.354 - 29.394 USB, Beacon 29.352 USB
PCSat 21 May 19:01:23 19:03:20 12° 258° (WSW) 19:05:17 145.825 MHz
Hamsat 21 May 19:03:44 19:07:56 68° 72° (ENE) 19:12:11 145.90 MHz
SO-67 21 May 19:06:53 19:09:56 27° 64° (ENE) 19:13:00 435.3500 MHz FM
HO-68 21 May 19:17:14 19:22:33 23° 41° (NE) 19:27:52 435.675 MHz FM
STRAND 1 21 May 19:17:55 19:22:42 37° 96° (E) 19:27:27 ?
AO-7 21 May 19:25:07 19:30:26 18° 278° (W) 19:35:49 29.400 - 29.500 MHz
JAS-1B 21 May 19:34:17 19:43:12 75° 68° (ENE) 19:50:41 435.800 - 435.900 CW/SSB
UOSAT-12 21 May 19:36:42 19:41:16 60° 36° (NE) 19:45:50 437.025 FM, 437.400 FM
OPAL 21 May 20:15:12 20:18:06 15° 43° (NE) 20:20:59 ?
JAS-2 21 May 20:24:01 20:30:54 35° 53° (NE) 20:37:41 435.800 - 435.900 CW/SSB, 435.910 FM
SO-67 21 May 20:40:02 20:43:20 34° 264° (W) 20:46:39 435.3500 MHz FM
Hamsat 21 May 20:41:34 20:44:30 18° 272° (W) 20:47:28 145.90 MHz
STRAND 1 21 May 20:57:09 21:02:02 45° 297° (WNW) 21:06:54 ?
Oscar 11 21 May 20:58:37 21:02:17 27° 60° (ENE) 21:05:58 145.825 FM, Beacon 2401.500 USB
HO-68 21 May 21:02:06 21:09:10 68° 64° (ENE) 21:16:16 435.675 MHz FM
RS-15 21 May 21:11:26 21:22:54 55° 347° (NNW) 21:33:52 29.354 - 29.394 USB, Beacon 29.352 USB
UOSAT-12 21 May 21:17:08 21:21:17 34° 237° (WSW) 21:25:25 437.025 FM, 437.400 FM
JAS-1B 21 May 21:26:18 21:34:18 35° 267° (W) 21:41:15 435.800 - 435.900 CW/SSB
OPAL 21 May 21:51:00 21:56:05 56° 64° (ENE) 22:01:07 ?
JAS-2 21 May 22:07:29 22:15:19 82° 255° (WSW) 22:23:10 435.800 - 435.900 CW/SSB, 435.910 FM
Oscar 11 21 May 22:34:09 22:38:20 49° 260° (W) 22:42:35 145.825 FM, Beacon 2401.500 USB
STRAND 1 21 May 22:38:15 22:40:06 12° 318° (NW) 22:41:56 ?
HO-68 21 May 22:50:58 22:57:23 35° 266° (W) 23:03:51 435.675 MHz FM
KITSAT 1 21 May 23:12:44 23:19:18 29° 108° (ESE) 23:25:55 435.175 FM
RS-15 21 May 23:26:11 23:37:31 58° 19° (NNE) 23:48:22 29.354 - 29.394 USB, Beacon 29.352 USB
OPAL 21 May 23:30:44 23:35:17 30° 264° (W) 23:39:49 ?
JAS-2 21 May 23:55:18 00:01:26 25° 276° (W) 00:07:35 435.800 - 435.900 CW/SSB, 435.910 FM
KITSAT 1 22 May 01:05:41 01:13:47 86° 131° (SE) 01:21:57 435.175 FM
AO-40 22 May 01:21:51 03:51:45 17° 139° (SE) 05:27:55 Beacon 2401.320
RS-15 22 May 01:39:26 01:50:44 80° 229° (SW) 02:01:37 29.354 - 29.394 USB, Beacon 29.352 USB
Oscar 16 22 May 01:49:22 01:52:38 17° 85° (E) 01:55:54 437.025 USB, Beacon 2401.1428
AO-27 22 May 01:55:50 01:58:37 14° 84° (E) 02:01:24 436.795 MHz FM
ITAMSAT 1 22 May 02:02:32 02:05:41 16° 85° (E) 02:08:49 435.822 SSB
MaSat-1 22 May 02:40:48 02:47:06 43° 116° (ESE) 02:52:14 437.345 MHz
Uribyol 2 22 May 02:42:58 02:47:39 32° 94° (E) 02:52:19 436.500 FM
Oscar 19 22 May 02:48:33 02:53:25 39° 96° (E) 02:58:14 437.125 CW, 437.150 USB
KITSAT 1 22 May 03:02:13 03:09:59 47° 338° (NNW) 03:17:48 435.175 FM
AO-Echo 22 May 03:02:15 03:05:25 18° 88° (E) 03:08:36 ?
Oscar 16 22 May 03:27:36 03:32:51 84° 106° (ESE) 03:38:02 437.025 USB, Beacon 2401.1428
TMSAT-1 22 May 03:33:49 03:34:24 10° 79° (E) 03:34:59 436.925 FM
AO-27 22 May 03:33:51 03:39:06 73° 104° (ESE) 03:44:20 436.795 MHz FM
ITAMSAT 1 22 May 03:40:48 03:46:04 80° 106° (ESE) 03:51:19 435.822 SSB
Gurwin Techsat 1B 22 May 03:52:21 03:56:18 21° 88° (E) 04:00:14 435.225 FM
RS-15 22 May 03:52:33 04:01:24 29° 256° (WSW) 04:10:06 29.354 - 29.394 USB, Beacon 29.352 USB
Uribyol 2 22 May 04:22:20 04:27:25 52° 295° (WNW) 04:32:29 436.500 FM
MaSat-1 22 May 04:22:53 04:29:16 55° 313° (NW) 04:34:18 437.345 MHz
Oscar 19 22 May 04:27:59 04:32:52 43° 297° (WNW) 04:37:43 437.125 CW, 437.150 USB
Uosat F 22 May 04:31:50 04:36:39 43° 98° (E) 04:41:26 435.120 FM
ISS 22 May 04:32:39 04:35:01 18° 149° (SSE) 04:37:24 145.800 FM
AO-Echo 22 May 04:40:07 04:44:52 82° 288° (WNW) 04:49:39 ?
KITSAT 1 22 May 04:59:44 05:07:16 39° 6° (N) 05:14:49 435.175 FM
STRAND 1 22 May 05:03:34 05:07:34 24° 54° (NE) 05:11:34 ?
Oscar 16 22 May 05:07:43 05:11:41 23° 307° (NW) 05:15:38 437.025 USB, Beacon 2401.1428
TMSAT-1 22 May 05:10:23 05:15:37 54° 100° (E) 05:20:49 436.925 FM
AO-27 22 May 05:13:59 05:18:14 26° 305° (NW) 05:22:28 436.795 MHz FM
ITAMSAT 1 22 May 05:21:00 05:25:06 24° 306° (NW) 05:29:12 435.822 SSB
AO-7 22 May 05:21:03 05:28:14 31° 91° (E) 05:35:23 29.400 - 29.500 MHz
Gurwin Techsat 1B 22 May 05:31:36 05:36:58 82° 288° (WNW) 05:42:17 435.225 FM
Uribyol 2 22 May 06:03:18 06:05:53 14° 316° (NW) 06:08:27 436.500 FM
MaSat-1 22 May 06:07:56 06:12:18 21° 333° (NNW) 06:15:58 437.345 MHz
ISS 22 May 06:08:01 06:11:12 41° 169° (S) 06:14:23 145.800 FM
Oscar 19 22 May 06:09:21 06:11:02 12° 319° (NW) 06:12:42 437.125 CW, 437.150 USB
Uosat F 22 May 06:10:50 06:15:27 38° 299° (WNW) 06:20:04 435.120 FM
AO-Echo 22 May 06:19:59 06:23:03 18° 308° (NW) 06:26:08 ?
STRAND 1 22 May 06:41:12 06:46:18 78° 254° (WSW) 06:51:27 ?
TMSAT-1 22 May 06:50:40 06:55:24 34° 301° (WNW) 07:00:07 436.925 FM
KITSAT 1 22 May 06:56:10 07:04:14 61° 34° (NE) 07:12:17 435.175 FM
Saudisat 1A 22 May 07:10:53 07:15:18 48° 128° (SE) 07:19:45 436.775 MHz
Gurwin Techsat 1B 22 May 07:12:29 07:16:16 20° 309° (NW) 07:20:02 435.225 FM
AO-7 22 May 07:13:36 07:22:00 85° 294° (WNW) 07:30:24 29.400 - 29.500 MHz
JAS-1B 22 May 07:15:56 07:16:49 10° 74° (ENE) 07:17:40 435.800 - 435.900 CW/SSB

Developed and maintained by Chris Peat, Heavens-Above GmbH. Please read the updated FAQ before sending e-mail. Imprint. DLR
